sat.trackr.live / text

‹ back to catalog

STARLINK-5854

NORAD 55923 · 2023-037K

PAYLOAD ACTIVE UNKNOWN

§ Identity

Operator
Country
US
Launch date
2023-03-17
Launch site
AFWTR
Launch vehicle
Mass (kg)
RCS (m²)

Purposes: comms

External: N2YO · Heavens-Above · Gunter

§ Orbital elements

Epoch: 2026-05-25T04:09:09.257184Z

Period
96.11 min
Inclination
69.9988°
Eccentricity
0.0003553
Mean motion
14.98327791 rev/d
Perigee alt
569.6 km
Apogee alt
574.5 km
Semi-major
6,950.2 km
B*
7.3181e-5
RAAN
111.6149°
Arg perigee
265.0398°
Mean anomaly
95.0355°
Rev number
17,494

§ Raw data

STARLINK-58541 55923U 23037K   26145.17302381  .00000780  00000+0  73181-4 0  99902 55923  69.9988 111.6149 0003553 265.0398  95.0355 14.98327791174940

JSON: /api/v1/satellites/55923 · /tle

For live sub-satellite position, see the globe view (requires WebGL).

§ Visibility from observer

Set your observer location to see the next 7 days of passes ≥ 10°. The values pass through the URL so the page stays shareable.

No JS? Fill the form by hand. The geolocation button needs JavaScript.